| time (UTC) | temp F | wind direction | speed MPH | gust MPH | rain 1hr in | rain 24hr in | rain mn in | humidity % | barometer mb |
| 20260505011205 | 52 | 28 | 7.0 | 13.0 | 0.00 | 0.00 | 0.00 | 43 | 1008.7 |
| 20260505010205 | 53 | 47 | 5.0 | 9.0 | 0.00 | 0.00 | 0.00 | 45 | 1008.7 |
| 20260505005705 | 53 | 45 | 5.0 | 9.0 | 0.00 | 0.00 | 0.00 | 45 | 1008.6 |
| 20260505005206 | 53 | 57 | 5.0 | 12.0 | 0.00 | 0.00 | 0.00 | 45 | 1008.5 |
| 20260505004705 | 53 | 36 | 5.0 | 12.0 | 0.00 | 0.00 | 0.00 | 45 | 1008.5 |
| 20260505004205 | 53 | 23 | 6.0 | 12.0 | 0.00 | 0.00 | 0.00 | 45 | 1008.4 |
| 20260505003705 | 53 | 36 | 5.0 | 12.0 | 0.00 | 0.00 | 0.00 | 46 | 1008.4 |
| 20260505003205 | 53 | 42 | 5.0 | 7.0 | 0.00 | 0.00 | 0.00 | 47 | 1008.4 |
| 20260505002705 | 53 | 47 | 7.0 | 12.0 | 0.00 | 0.00 | 0.00 | 46 | 1008.3 |
| 20260505002205 | 53 | 37 | 4.0 | 9.0 | 0.00 | 0.00 | 0.00 | 47 | 1008.2 |
| 20260505001205 | 53 | 51 | 7.0 | 12.0 | 0.00 | 0.00 | 0.00 | 47 | 1008.2 |
| 20260504235205 | 54 | 49 | 8.0 | 15.0 | 0.00 | 0.00 | 0.00 | 45 | 1008.2 |
| 20260504234704 | 54 | 40 | 9.0 | 16.0 | 0.00 | 0.00 | 0.00 | 45 | 1008.2 |
| 20260504234204 | 54 | 35 | 8.0 | 13.0 | 0.00 | 0.00 | 0.00 | 45 | 1008.2 |
| 20260504233205 | 54 | 31 | 9.0 | 14.0 | 0.00 | 0.00 | 0.00 | 46 | 1008.2 |
| 20260504232705 | 54 | 40 | 9.0 | 15.0 | 0.00 | 0.00 | 0.00 | 46 | 1008.1 |
| 20260504232205 | 54 | 34 | 9.0 | 14.0 | 0.00 | 0.01 | 0.00 | 47 | 1007.9 |
| 20260504231705 | 54 | 37 | 7.0 | 14.0 | 0.00 | 0.01 | 0.00 | 49 | 1007.9 |
| 20260504230205 | 53 | 33 | 8.0 | 18.0 | 0.00 | 0.03 | 0.00 | 50 | 1007.7 |
| 20260504224705 | 54 | 19 | 7.0 | 14.0 | 0.00 | 0.13 | 0.00 | 50 | 1007.5 |
| 20260504224205 | 54 | 22 | 8.0 | 16.0 | 0.00 | 0.13 | 0.00 | 49 | 1007.4 |
| 20260504223705 | 54 | 20 | 10.0 | 15.0 | 0.00 | 0.13 | 0.00 | 49 | 1007.5 |
| 20260504223205 | 55 | 17 | 9.0 | 15.0 | 0.00 | 0.13 | 0.00 | 49 | 1007.4 |
| 20260504222704 | 55 | 17 | 11.0 | 20.0 | 0.00 | 0.13 | 0.00 | 48 | 1007.5 |
| 20260504222205 | 56 | 7 | 11.0 | 17.0 | 0.00 | 0.13 | 0.00 | 47 | 1007.5 |
| 20260504221705 | 56 | 34 | 9.0 | 18.0 | 0.00 | 0.13 | 0.00 | 48 | 1007.4 |
| 20260504221205 | 56 | 31 | 10.0 | 17.0 | 0.00 | 0.13 | 0.00 | 47 | 1007.3 |
| 20260504220704 | 55 | 20 | 9.0 | 18.0 | 0.00 | 0.13 | 0.00 | 47 | 1007.2 |
| 20260504220204 | 56 | 32 | 11.0 | 20.0 | 0.00 | 0.13 | 0.00 | 45 | 1007.2 |
| 20260504215705 | 57 | 31 | 11.0 | 20.0 | 0.00 | 0.13 | 0.00 | 44 | 1007.1 |
| 20260504215205 | 56 | 17 | 9.0 | 14.0 | 0.00 | 0.13 | 0.00 | 44 | 1007.2 |
| 20260504214205 | 57 | 29 | 11.0 | 18.0 | 0.00 | 0.13 | 0.00 | 43 | 1007.0 |
| 20260504213705 | 57 | 39 | 10.0 | 16.0 | 0.00 | 0.13 | 0.00 | 43 | 1006.9 |
| 20260504213205 | 58 | 40 | 9.0 | 17.0 | 0.00 | 0.13 | 0.00 | 43 | 1006.9 |
| 20260504212705 | 59 | 40 | 9.0 | 15.0 | 0.00 | 0.13 | 0.00 | 41 | 1006.8 |
| 20260504212204 | 59 | 27 | 9.0 | 16.0 | 0.00 | 0.13 | 0.00 | 42 | 1006.8 |
| 20260504211704 | 58 | 27 | 9.0 | 14.0 | 0.00 | 0.13 | 0.00 | 41 | 1006.9 |
| 20260504211204 | 58 | 37 | 10.0 | 20.0 | 0.00 | 0.13 | 0.00 | 42 | 1006.9 |
| 20260504210705 | 58 | 28 | 9.0 | 16.0 | 0.00 | 0.13 | 0.00 | 42 | 1006.8 |
| 20260504210205 | 58 | 19 | 12.0 | 18.0 | 0.00 | 0.13 | 0.00 | 42 | 1006.8 |
| 20260504205705 | 57 | 44 | 10.0 | 15.0 | 0.00 | 0.13 | 0.00 | 43 | 1006.9 |
| 20260504205206 | 57 | 23 | 11.0 | 17.0 | 0.00 | 0.13 | 0.00 | 43 | 1007.0 |
| 20260504204204 | 58 | 31 | 9.0 | 17.0 | 0.00 | 0.13 | 0.00 | 41 | 1007.1 |
| 20260504203205 | 58 | 14 | 7.0 | 12.0 | 0.00 | 0.13 | 0.00 | 41 | 1007.0 |
| 20260504202705 | 59 | 23 | 9.0 | 14.0 | 0.00 | 0.13 | 0.00 | 40 | 1007.1 |
| 20260504202204 | 59 | 18 | 9.0 | 15.0 | 0.00 | 0.13 | 0.00 | 40 | 1007.0 |
| 20260504201705 | 59 | 7 | 8.0 | 15.0 | 0.00 | 0.13 | 0.00 | 40 | 1007.1 |
| 20260504201204 | 59 | 39 | 10.0 | 16.0 | 0.00 | 0.13 | 0.00 | 41 | 1006.9 |
| 20260504200704 | 60 | 37 | 7.0 | 15.0 | 0.00 | 0.13 | 0.00 | 39 | 1006.9 |
| 20260504195704 | 60 | 6 | 8.0 | 15.0 | 0.00 | 0.13 | 0.00 | 40 | 1006.9 |
| 20260504195204 | 60 | 6 | 7.0 | 14.0 | 0.00 | 0.13 | 0.00 | 41 | 1006.9 |
| 20260504194705 | 59 | 348 | 7.0 | 16.0 | 0.00 | 0.13 | 0.00 | 41 | 1006.9 |
| 20260504194204 | 59 | 19 | 10.0 | 14.0 | 0.00 | 0.13 | 0.00 | 41 | 1006.9 |
| 20260504193704 | 59 | 343 | 8.0 | 13.0 | 0.00 | 0.13 | 0.00 | 40 | 1007.0 |
| 20260504192204 | 59 | 22 | 10.0 | 20.0 | 0.00 | 0.13 | 0.00 | 40 | 1006.7 |
| 20260504191705 | 59 | 45 | 11.0 | 17.0 | 0.00 | 0.13 | 0.00 | 41 | 1006.7 |
| 20260504191205 | 59 | 36 | 10.0 | 18.0 | 0.00 | 0.13 | 0.00 | 39 | 1006.7 |
| 20260504190705 | 59 | 14 | 9.0 | 17.0 | 0.00 | 0.13 | 0.00 | 41 | 1006.7 |
| 20260504185705 | 59 | 30 | 11.0 | 21.0 | 0.00 | 0.13 | 0.00 | 41 | 1006.9 |
| 20260504185204 | 59 | 32 | 10.0 | 17.0 | 0.00 | 0.13 | 0.00 | 40 | 1006.8 |
| 20260504184704 | 60 | 4 | 9.0 | 16.0 | 0.00 | 0.13 | 0.00 | 40 | 1007.0 |
| 20260504183705 | 60 | 353 | 10.0 | 17.0 | 0.00 | 0.13 | 0.00 | 41 | 1007.3 |
| 20260504183205 | 59 | 9 | 9.0 | 16.0 | 0.00 | 0.13 | 0.00 | 42 | 1007.1 |
| 20260504182705 | 59 | 6 | 8.0 | 13.0 | 0.00 | 0.13 | 0.00 | 43 | 1007.2 |
| 20260504182204 | 59 | 16 | 10.0 | 16.0 | 0.00 | 0.13 | 0.00 | 43 | 1007.2 |
| 20260504181705 | 58 | 0 | 11.0 | 23.0 | 0.00 | 0.13 | 0.00 | 45 | 1007.0 |
| 20260504181204 | 57 | 38 | 12.0 | 20.0 | 0.00 | 0.13 | 0.00 | 45 | 1007.1 |
| 20260504180704 | 57 | 34 | 9.0 | 15.0 | 0.00 | 0.13 | 0.00 | 44 | 1007.1 |
| 20260504175204 | 58 | 17 | 13.0 | 20.0 | 0.00 | 0.13 | 0.00 | 44 | 1007.1 |
| 20260504174704 | 58 | 36 | 8.0 | 18.0 | 0.00 | 0.13 | 0.00 | 46 | 1007.1 |
| 20260504174204 | 57 | 13 | 11.0 | 18.0 | 0.00 | 0.13 | 0.00 | 44 | 1007.2 |
| 20260504173704 | 58 | 31 | 9.0 | 20.0 | 0.00 | 0.13 | 0.00 | 45 | 1007.0 |
| 20260504173204 | 57 | 33 | 9.0 | 15.0 | 0.00 | 0.13 | 0.00 | 45 | 1006.8 |
| 20260504172704 | 57 | 45 | 9.0 | 20.0 | 0.00 | 0.13 | 0.00 | 46 | 1006.7 |
| 20260504171704 | 57 | 38 | 13.0 | 20.0 | 0.00 | 0.13 | 0.00 | 44 | 1007.0 |
| 20260504171204 | 57 | 34 | 9.0 | 20.0 | 0.00 | 0.13 | 0.00 | 43 | 1007.0 |
| 20260504170204 | 58 | 20 | 9.0 | 17.0 | 0.00 | 0.13 | 0.00 | 45 | 1006.9 |
| 20260504150204 | 54 | 29 | 12.0 | 17.0 | 0.00 | 0.13 | 0.00 | 49 | 1005.9 |
| 20260504141204 | 52 | 39 | 12.0 | 18.0 | 0.00 | 0.13 | 0.00 | 63 | 1005.5 |
| 20260504140704 | 52 | 42 | 9.0 | 16.0 | 0.00 | 0.13 | 0.00 | 65 | 1005.5 |
| 20260504140204 | 52 | 32 | 8.0 | 18.0 | 0.00 | 0.13 | 0.00 | 64 | 1005.6 |
| 20260504130704 | 52 | 280 | 3.0 | 7.0 | 0.00 | 0.13 | 0.00 | 59 | 1004.3 |
| 20260504130204 | 51 | 256 | 5.0 | 14.0 | 0.00 | 0.13 | 0.00 | 58 | 1003.9 |
| 20260504120203 | 50 | 201 | 5.0 | 9.0 | 0.00 | 0.13 | 0.00 | 60 | 1002.1 |
| 20260504110203 | 46 | 217 | 5.0 | 5.0 | 0.00 | 0.13 | 0.00 | 71 | 1002.2 |
| 20260504081706 | 48 | 225 | 5.0 | 6.0 | 0.00 | 0.13 | 0.00 | 74 | 1003.0 |
| 20260504081205 | 48 | 226 | 5.0 | 7.0 | 0.00 | 0.13 | 0.00 | 75 | 1003.0 |
| 20260504080705 | 48 | 232 | 5.0 | 6.0 | 0.00 | 0.13 | 0.00 | 76 | 1003.0 |
| 20260504080205 | 48 | 232 | 4.0 | 5.0 | 0.00 | 0.13 | 0.00 | 76 | 1003.1 |
| 20260504060205 | 52 | 212 | 1.0 | 2.0 | 0.00 | 0.13 | 0.00 | 70 | 1003.6 |
| 20260504045706 | 48 | 188 | 1.0 | 3.0 | 0.00 | 0.13 | 0.13 | 79 | 1004.1 |
| 20260504045205 | 48 | 188 | 1.0 | 2.0 | 0.00 | 0.13 | 0.13 | 80 | 1004.0 |
| 20260504044706 | 48 | 188 | 0.0 | 1.0 | 0.00 | 0.13 | 0.13 | 80 | 1004.1 |
| 20260504044205 | 48 | 188 | 1.0 | 2.0 | 0.00 | 0.13 | 0.13 | 81 | 1004.2 |
| 20260504043705 | 48 | 188 | 1.0 | 2.0 | 0.00 | 0.13 | 0.13 | 81 | 1004.2 |
| 20260504042705 | 49 | 188 | 1.0 | 2.0 | 0.00 | 0.13 | 0.13 | 81 | 1004.2 |
| 20260504042205 | 49 | 188 | 0.0 | 1.0 | 0.00 | 0.13 | 0.13 | 81 | 1004.3 |
| 20260504041705 | 49 | 188 | 0.0 | 1.0 | 0.00 | 0.13 | 0.13 | 81 | 1004.3 |
| 20260504041206 | 49 | 188 | 0.0 | 2.0 | 0.00 | 0.13 | 0.13 | 81 | 1004.3 |
| 20260504040705 | 49 | 188 | 2.0 | 3.0 | 0.00 | 0.13 | 0.13 | 81 | 1004.4 |
| 20260504040206 | 49 | 188 | 1.0 | 2.0 | 0.00 | 0.13 | 0.13 | 81 | 1004.3 |
| 20260504035705 | 50 | 188 | 0.0 | 1.0 | 0.00 | 0.13 | 0.13 | 81 | 1004.3 |
| 20260504034705 | 50 | 188 | 0.0 | 1.0 | 0.00 | 0.13 | 0.13 | 80 | 1004.5 |
| 20260504034205 | 50 | 188 | 0.0 | 1.0 | 0.00 | 0.13 | 0.13 | 80 | 1004.4 |
| 20260504033205 | 51 | 188 | 0.0 | 1.0 | 0.00 | 0.13 | 0.13 | 78 | 1004.4 |
| 20260504032705 | 51 | 188 | 0.0 | 2.0 | 0.00 | 0.13 | 0.13 | 77 | 1004.5 |
| 20260504032205 | 52 | 188 | 1.0 | 2.0 | 0.00 | 0.13 | 0.13 | 76 | 1004.5 |
| 20260504031705 | 52 | 188 | 1.0 | 2.0 | 0.00 | 0.13 | 0.13 | 74 | 1004.5 |
| 20260504031205 | 53 | 188 | 0.0 | 1.0 | 0.00 | 0.13 | 0.13 | 73 | 1004.5 |
| 20260504030205 | 54 | 187 | 1.0 | 3.0 | 0.00 | 0.13 | 0.13 | 70 | 1004.5 |
| 20260504025705 | 54 | 186 | 1.0 | 3.0 | 0.00 | 0.13 | 0.13 | 69 | 1004.6 |
| 20260504025205 | 54 | 186 | 2.0 | 3.0 | 0.00 | 0.13 | 0.13 | 68 | 1004.6 |
| 20260504024206 | 55 | 186 | 1.0 | 3.0 | 0.00 | 0.13 | 0.13 | 69 | 1004.5 |
| 20260504023205 | 55 | 186 | 3.0 | 6.0 | 0.00 | 0.13 | 0.13 | 68 | 1004.6 |
| 20260504022705 | 55 | 164 | 4.0 | 6.0 | 0.00 | 0.13 | 0.13 | 69 | 1004.5 |
| 20260504022205 | 55 | 132 | 1.0 | 3.0 | 0.00 | 0.13 | 0.13 | 68 | 1004.5 |
| 20260504021705 | 55 | 132 | 1.0 | 3.0 | 0.00 | 0.13 | 0.13 | 68 | 1004.5 |
| 20260504021205 | 55 | 132 | 0.0 | 1.0 | 0.00 | 0.13 | 0.13 | 71 | 1004.4 |
| 20260504020705 | 56 | 132 | 1.0 | 1.0 | 0.00 | 0.13 | 0.13 | 69 | 1004.4 |
| 20260504020205 | 56 | 132 | 1.0 | 2.0 | 0.00 | 0.13 | 0.13 | 68 | 1004.4 |
| 20260504015705 | 56 | 132 | 2.0 | 3.0 | 0.00 | 0.13 | 0.13 | 68 | 1004.4 |
| 20260504015205 | 56 | 132 | 1.0 | 3.0 | 0.00 | 0.13 | 0.13 | 68 | 1004.4 |
| 20260504014705 | 56 | 130 | 2.0 | 3.0 | 0.00 | 0.13 | 0.13 | 68 | 1004.3 |
| 20260504014204 | 57 | 130 | 1.0 | 5.0 | 0.00 | 0.13 | 0.13 | 69 | 1004.4 |
| 20260504013705 | 57 | 130 | 2.0 | 5.0 | 0.00 | 0.13 | 0.13 | 69 | 1004.4 |
| 20260504013205 | 57 | 130 | 2.0 | 3.0 | 0.00 | 0.13 | 0.13 | 70 | 1004.4 |
| 20260504012704 | 57 | 130 | 2.0 | 3.0 | 0.00 | 0.13 | 0.13 | 70 | 1004.5 |
| 20260504012205 | 57 | 130 | 2.0 | 7.0 | 0.00 | 0.13 | 0.13 | 72 | 1004.6 |
| 20260504011705 | 56 | 140 | 2.0 | 3.0 | 0.00 | 0.13 | 0.13 | 73 | 1004.7 |